Location: Newark
(52.2090°N, 4.1550°W)
Time: 03:27:43
(UTC+00:00)

Transit 2A - Visible Passes

Search period start: 22 October 2019 00:00
Search period end: 01 November 2019 00:00
Orbit: 600 x 958 km, 66.7° (Epoch: 20 October)

Date Brightness Start Highest point End Pass type
(mag) Time Alt. Az. Time Alt. Az. Time Alt. Az.
22 Oct 5.8 19:13:55 10° SSW 19:19:09 60° ESE 19:20:27 44° ENE visible
22 Oct 7.8 20:57:57 10° WSW 21:00:58 27° WNW 21:00:58 27° WNW visible
23 Oct 6.2 18:40:04 10° S 18:45:05 44° ESE 18:47:44 23° ENE visible
23 Oct 6.9 20:23:26 10° WSW 20:28:15 41° NW 20:28:15 41° NW visible
24 Oct 6.7 18:06:23 10° S 18:11:04 32° ESE 18:14:54 12° ENE visible
24 Oct 6.4 19:49:00 10° WSW 19:54:05 54° NW 19:55:25 41° N visible
24 Oct 8.6 21:34:46 10° WNW 21:35:55 14° NW 21:35:55 14° NW visible
25 Oct 7.1 17:32:58 10° SSE 17:37:05 23° ESE 17:40:56 10° ENE visible
25 Oct 6.0 19:14:42 10° SW 19:19:55 71° NW 19:22:29 28° NNE visible
25 Oct 8.1 21:00:01 10° WNW 21:02:59 21° NW 21:02:59 21° NW visible
26 Oct 5.8 18:40:31 10° SW 18:45:46 87° SE 18:49:28 17° NE visible
26 Oct 7.6 20:25:18 10° W 20:29:27 26° NNW 20:29:58 25° NNW visible
27 Oct 5.9 18:06:29 10° SSW 18:11:40 64° SE 18:16:23 10° NE visible
27 Oct 7.4 19:50:39 10° W 19:55:08 31° NW 19:56:52 24° N visible
27 Oct 8.8 21:37:04 10° NW 21:37:22 11° NW 21:37:22 11° NW visible
28 Oct 6.2 17:32:36 10° SSW 17:37:36 47° ESE 17:42:11 10° NE visible
28 Oct 7.0 19:16:06 10° WSW 19:20:52 39° NW 19:23:45 19° NNE visible
28 Oct 8.4 21:02:18 10° NW 21:04:14 15° NNW 21:04:14 15° NNW visible
29 Oct 6.6 18:41:39 10° WSW 18:46:38 50° NW 18:50:35 14° NNE visible
29 Oct 8.0 20:27:30 10° WNW 20:30:48 18° NNW 20:31:04 18° NNW visible
30 Oct 6.1 18:07:19 10° SW 18:12:27 67° NW 18:17:07 10° NE visible
30 Oct 7.8 19:52:44 10° WNW 19:56:23 21° NNW 19:57:51 18° N visible
31 Oct 5.9 17:33:07 10° SW 17:38:18 88° NW 17:43:01 10° NE visible
31 Oct 7.7 19:18:01 10° W 19:22:01 24° NNW 19:24:36 16° NNE visible
31 Oct 8.6 21:04:29 10° NW 21:05:06 11° NNW 21:05:06 11° NNW visible
